Weather History for KSEG - April, 2013

Change the Weather History Date:

Wednesday, April 24, 2013

  Actual Average (KIPT) Record (KIPT)
Temperature  
Mean Temperature 52 °F 53 °F  
Max Temperature 72 °F 65 °F 96 °F (1925)
Min Temperature 32 °F 42 °F 25 °F (1930)
Degree Days  
Heating Degree Days 14 12  
Month to date heating degree days 391  
Since 1 July heating degree days 5687  
Cooling Degree Days 0 0  
Month to date cooling degree days 0  
Year to date cooling degree days 0  
Growing Degree Days 2 (Base 50)    
Moisture  
Dew Point 46 °F    
Average Humidity 76    
Maximum Humidity 96    
Minimum Humidity 48    
Precipitation  
Precipitation 0.31 in 0.10 in 2.09 in (1977)
Month to date precipitation 2.60  
Year to date precipitation 10.61  
Snow  
Snow 0.00 in 0.00 in 2.20 in (1967)
Month to date snowfall 1.1  
Since 1 July snowfall 36.0  
Snow Depth -    
Sea Level Pressure  
Sea Level Pressure 29.95 in    
Wind  
Wind Speed 5 mph (SSW)    
Max Wind Speed 18 mph    
Max Gust Speed 32 mph    
Visibility 7 miles    
Events Rain    
T = Trace of Precipitation, MM = Missing Value Source: NWS Daily Summary

Daily Weather History Graph

Daily Weather History Graph

Search for Another Location

Airport or City:

Trip Planner

Search our weather history database for the weather conditions in past years. The results will help you decide how hot, cold, wet, or windy it might be!

Date:

Astronomy

Apr. 24, 2013 Rise Set
Actual Time 6:14 AM EDT 7:56 PM EDT
Civil Twilight 5:45 AM EDT 8:25 PM EDT
Nautical Twilight 5:10 AM EDT 9:01 PM EDT
Astronomical Twilight 4:32 AM EDT 9:39 PM EDT
Moon 6:57 PM EDT (4/24) 5:17 AM EDT (4/24)
Length of Visible Light 14h 40m
Length of Day
13h 41m
Waxing Gibbous, 98% of the Moon is Illuminated
Apr 24
Waxing Gibbous
Apr 25
Full
May 2
Last Quarter
May 9
New
May 18
First Quarter

Hourly Weather History & Observations

Time (EDT) Temp. Windchill Dew Point Humidity Pressure Visibility Wind Dir Wind Speed Gust Speed Precip Events Conditions
12:53 AM 43.0 °F - 39.0 °F 86% 30.11 in 10.0 mi Calm Calm - N/A   Clear
1:53 AM 45.0 °F - 39.9 °F 82% 30.09 in 10.0 mi Calm Calm - N/A   Clear
2:53 AM 42.1 °F - 39.9 °F 92% 30.08 in 10.0 mi Calm Calm - N/A   Clear
3:53 AM 41.0 °F - 39.0 °F 93% 30.06 in 8.0 mi Calm Calm - N/A   Clear
4:53 AM 43.0 °F - 39.9 °F 89% 30.05 in 7.0 mi Calm Calm - N/A   Clear
6:53 AM 43.0 °F - 41.0 °F 93% 30.05 in 4.0 mi Calm Calm - N/A   Partly Cloudy
7:07 AM 42.8 °F - 41.0 °F 93% 30.05 in 4.0 mi Calm Calm - N/A   Mostly Cloudy
7:53 AM 46.9 °F - 44.1 °F 90% 30.05 in 4.0 mi Calm Calm - N/A   Overcast
8:53 AM 48.9 °F - 44.1 °F 83% 30.03 in 4.0 mi Variable 5.8 mph - N/A   Haze
9:53 AM 51.1 °F - 45.0 °F 80% 30.01 in 6.0 mi South 8.1 mph - N/A   Haze
10:19 AM 51.8 °F - 44.6 °F 76% 29.99 in 6.0 mi SSW 6.9 mph - N/A   Haze
10:50 AM 32.0 °F 23.6 °F 14.0 °F 48% 30.21 in 10.0 mi NNE 10.4 mph - N/A   Clear
10:53 AM 55.0 °F - 46.9 °F 74% 29.98 in 6.0 mi South 10.4 mph - N/A   Haze
11:13 AM 55.4 °F - 46.4 °F 72% 29.96 in 7.0 mi South 9.2 mph - N/A   Scattered Clouds
11:53 AM 59.0 °F - 48.0 °F 67% 29.95 in 8.0 mi SSW 9.2 mph - N/A   Scattered Clouds
12:53 PM 62.1 °F - 50.0 °F 65% 29.90 in 7.0 mi South 11.5 mph 18.4 mph N/A   Mostly Cloudy
1:53 PM 66.0 °F - 51.1 °F 59% 29.86 in 8.0 mi South 9.2 mph - N/A   Clear
2:53 PM 68.0 °F - 52.0 °F 56% 29.83 in 8.0 mi South 10.4 mph 17.3 mph N/A   Clear
3:53 PM 71.1 °F - 52.0 °F 51% 29.78 in 10.0 mi South 10.4 mph 17.3 mph N/A   Clear
4:53 PM 71.1 °F - 52.0 °F 51% 29.72 in 10.0 mi South 10.4 mph 19.6 mph N/A   Clear
5:53 PM 70.0 °F - 53.1 °F 55% 29.78 in 7.0 mi SSW 11.5 mph 19.6 mph 0.01 in Rain Light Rain
6:07 PM 64.4 °F - 55.4 °F 73% 29.84 in 1.8 mi West 13.8 mph 24.2 mph 0.07 in Rain Heavy Rain
6:27 PM 62.6 °F - 57.2 °F 82% 29.81 in 3.0 mi Calm Calm - 0.14 in Rain Rain
6:53 PM 61.0 °F - 59.0 °F 93% 29.82 in 4.0 mi South 3.5 mph - 0.17 in Rain Light Rain
7:53 PM 60.1 °F - 59.0 °F 96% 29.80 in 8.0 mi SSE 5.8 mph - 0.02 in   Overcast
8:53 PM 60.1 °F - 57.0 °F 90% 29.81 in 10.0 mi Calm Calm - 0.00 in   Mostly Cloudy
9:38 PM 57.2 °F - 53.6 °F 88% 29.88 in 1.8 mi West 15.0 mph 31.1 mph 0.11 in Rain Heavy Rain
9:44 PM 57.2 °F - 51.8 °F 82% 29.89 in 4.0 mi West 13.8 mph 25.3 mph 0.11 in Rain Light Rain
9:53 PM 57.0 °F - 48.9 °F 74% 29.90 in 10.0 mi WNW 16.1 mph 27.6 mph 0.11 in   Mostly Cloudy
10:53 PM 51.1 °F - 39.9 °F 66% 30.00 in 10.0 mi WNW 16.1 mph 32.2 mph N/A   Overcast
11:53 PM 46.9 °F - 35.1 °F 63% 30.07 in 10.0 mi West 18.4 mph 28.8 mph N/A   Mostly Cloudy